DW2128 Weather Reports


Display with metric or nautical units.
time (UTC)temp
F
wind
direction
speed
MPH
gust
MPH
rain 1hr
in
rain 24hr
in
rain mn
in
humidity
%
barometer
mb
20260901102022 61 225 0.0 0.0 0.00 0.00 0.00 61 1012.9
20260901101847 61 225 1.0 0.0 0.00 0.00 0.00 61 1012.9
20260901100520 61 226 2.0 0.0 0.00 0.00 0.00 61 1012.8
20260901100331 61 226 2.0 0.0 0.00 0.00 0.00 61 1012.8
20260901095025 61 251 1.0 0.0 0.00 0.00 0.00 62 1012.7
20260901094831 61 251 1.0 0.0 0.00 0.00 0.00 62 1012.7
20260901093525 61 252 0.0 0.0 0.00 0.00 0.00 63 1012.6
20260901093335 61 252 0.0 0.0 0.00 0.00 0.00 62 1012.6
20260901092029 61 252 1.0 0.0 0.00 0.00 0.00 62 1012.6
20260901091838 61 252 1.0 0.0 0.00 0.00 0.00 62 1012.6
20260901090532 61 256 1.0 0.0 0.00 0.00 0.00 62 1012.6
20260901090336 61 319 1.0 0.0 0.00 0.00 0.00 63 1012.6
20260901085032 61 319 0.0 0.0 0.00 0.00 0.00 63 1012.6
20260901084836 61 319 0.0 0.0 0.00 0.00 0.00 63 1012.6
20260901083530 61 319 0.0 0.0 0.00 0.00 0.00 64 1012.9
20260901083323 61 319 0.0 0.0 0.00 0.00 0.00 64 1012.9
20260901082057 61 319 0.0 0.0 0.00 0.00 0.00 65 1012.9
20260901081840 61 319 0.0 0.0 0.00 0.00 0.00 65 1012.9
20260901080534 61 319 0.0 0.0 0.00 0.00 0.00 65 1012.8
20260901080322 61 319 0.0 0.0 0.00 0.00 0.00 65 1012.8
20260901075032 61 319 0.0 0.0 0.00 0.00 0.00 65 1012.9
20260901074823 61 319 0.0 0.0 0.00 0.00 0.00 65 1012.9
20260901073535 61 319 0.0 0.0 0.00 0.00 0.00 65 1013.0
20260901073323 61 319 0.0 0.0 0.00 0.00 0.00 65 1013.0
20260901072038 61 319 0.0 0.0 0.00 0.00 0.00 65 1013.0
20260901071846 61 319 0.0 0.0 0.00 0.00 0.00 65 1013.0
20260901070525 61 319 0.0 0.0 0.00 0.00 0.00 66 1013.0
20260901070333 61 319 0.0 0.0 0.00 0.00 0.00 67 1013.0
20260901065047 61 319 0.0 0.0 0.00 0.00 0.00 67 1013.0
20260901064833 61 319 0.0 0.0 0.00 0.00 0.00 67 1013.0
20260901063525 61 319 0.0 0.0 0.00 0.00 0.00 67 1013.1
20260901063334 61 319 0.0 0.0 0.00 0.00 0.00 67 1013.1
20260901062031 61 319 0.0 0.0 0.00 0.00 0.00 67 1013.1
20260901061837 61 319 0.0 0.0 0.00 0.00 0.00 67 1013.1
20260901060535 61 319 0.0 0.0 0.00 0.00 0.00 67 1013.1
20260901060400 61 319 0.0 0.0 0.00 0.00 0.00 68 1013.1
20260901055033 61 319 0.0 0.0 0.00 0.00 0.00 68 1013.1
20260901054841 61 319 0.0 0.0 0.00 0.00 0.00 68 1013.1
20260901053553 61 319 0.0 0.0 0.00 0.00 0.00 67 1013.2
20260901053343 61 319 0.0 0.0 0.00 0.00 0.00 67 1013.2
20260901052037 61 319 0.0 0.0 0.00 0.00 0.00 68 1013.1
20260901051841 61 319 0.0 0.0 0.00 0.00 0.00 67 1013.1
20260901050535 62 319 0.0 0.0 0.00 0.00 0.00 68 1012.8
20260901050325 62 319 0.0 0.0 0.00 0.00 0.00 69 1012.8
20260901045022 62 319 0.0 0.0 0.00 0.00 0.00 68 1012.7
20260901044828 62 319 0.0 0.0 0.00 0.00 0.00 68 1012.7
20260901043547 62 319 0.0 0.0 0.00 0.00 0.00 67 1012.6
20260901043334 62 319 0.0 0.0 0.00 0.00 0.00 67 1012.6
20260901042030 62 319 0.0 0.0 0.00 0.00 0.00 66 1012.6
20260901041841 62 319 0.0 0.0 0.00 0.00 0.00 66 1012.6
20260901040535 62 319 0.0 0.0 0.00 0.00 0.00 66 1012.5
20260901040341 62 319 0.0 0.0 0.00 0.00 0.00 66 1012.5
20260901035020 62 318 0.0 0.0 0.00 0.00 0.00 66 1012.1
20260901034826 62 318 0.0 0.0 0.00 0.00 0.00 66 1012.1
20260901033520 62 318 0.0 0.0 0.00 0.00 0.00 66 1012.1
20260901033328 62 318 0.0 0.0 0.00 0.00 0.00 66 1012.1
20260901032029 63 318 0.0 0.0 0.00 0.00 0.00 65 1011.8
20260901031833 63 318 0.0 0.0 0.00 0.00 0.00 65 1011.8
20260901030551 63 318 0.0 0.0 0.00 0.00 0.00 65 1011.6
20260901030333 63 318 0.0 0.0 0.00 0.00 0.00 65 1011.6
20260901025028 64 277 0.0 0.0 0.00 0.00 0.00 64 1011.6
20260901024837 64 277 0.0 0.0 0.00 0.00 0.00 64 1011.6
20260901023550 65 276 0.0 0.0 0.00 0.00 0.00 62 1011.6
20260901023337 65 276 0.0 0.0 0.00 0.00 0.00 62 1011.6
20260901022051 66 355 0.0 0.0 0.00 0.00 0.00 61 1011.6
20260901021836 66 355 0.0 0.0 0.00 0.00 0.00 61 1011.6
20260901020530 67 330 0.0 0.0 0.00 0.00 0.00 59 1011.5
20260901020319 67 306 0.0 0.0 0.00 0.00 0.00 59 1011.5
20260901015019 68 15 0.0 0.0 0.00 0.00 0.00 56 1011.5
20260901014825 69 9 1.0 0.0 0.00 0.00 0.00 56 1011.5
20260901013524 71 298 0.0 0.0 0.00 0.00 0.00 52 1011.5
20260901013335 71 298 0.0 0.0 0.00 0.00 0.00 52 1011.5
20260901012050 72 275 0.0 0.0 0.00 0.00 0.00 50 1011.5
20260901011833 72 252 0.0 0.0 0.00 0.00 0.00 50 1011.5
20260901010527 72 339 0.0 0.0 0.00 0.00 0.00 49 1011.5
20260901010331 72 339 0.0 0.0 0.00 0.00 0.00 51 1011.5
20260901005025 72 15 0.0 0.0 0.00 0.00 0.00 51 1011.5
20260901004834 73 15 0.0 0.0 0.00 0.00 0.00 50 1011.5
20260901003530 72 5 1.0 0.0 0.00 0.00 0.00 51 1011.4
20260901003335 73 316 1.0 0.0 0.00 0.00 0.00 51 1011.4
20260901002028 73 339 1.0 0.0 0.00 0.00 0.00 52 1011.4
20260901001830 72 317 1.0 0.0 0.00 0.00 0.00 52 1011.4
20260901000521 73 318 1.0 0.0 0.00 0.00 0.00 50 1011.4
20260901000330 74 309 1.0 0.0 0.00 0.00 0.00 50 1011.4
20260831235023 74 279 0.0 0.0 0.00 0.00 0.00 49 1011.4
20260831234827 74 288 1.0 0.0 0.00 0.00 0.00 51 1011.4
20260831233525 75 355 0.0 0.0 0.00 0.00 0.00 46 1011.4
20260831233332 75 321 0.0 0.0 0.00 0.00 0.00 46 1011.4
20260831232029 77 310 0.0 0.0 0.00 0.00 0.00 43 1011.4
20260831231838 77 310 0.0 0.0 0.00 0.00 0.00 45 1011.4
20260831230554 76 234 0.0 0.0 0.00 0.00 0.00 44 1011.5
20260831230318 77 300 0.0 0.0 0.00 0.00 0.00 45 1011.5
20260831225017 76 18 1.0 0.0 0.00 0.00 0.00 45 1011.5
20260831224824 76 19 1.0 0.0 0.00 0.00 0.00 45 1011.5
20260831223536 77 9 1.0 0.0 0.00 0.00 0.00 46 1011.5
20260831223327 76 9 1.0 0.0 0.00 0.00 0.00 46 1011.5
20260831222020 76 267 1.0 0.0 0.00 0.00 0.00 45 1011.5
20260831221825 76 317 1.0 0.0 0.00 0.00 0.00 45 1011.5
20260831220525 78 311 0.0 0.0 0.00 0.00 0.00 45 1011.8
20260831220330 77 304 0.0 0.0 0.00 0.00 0.00 43 1011.8
20260831215024 76 283 1.0 0.0 0.00 0.00 0.00 46 1012.0
20260831214835 76 307 1.0 0.0 0.00 0.00 0.00 45 1012.0
20260831213530 77 309 0.0 0.0 0.00 0.00 0.00 44 1012.0
20260831213337 76 309 0.0 0.0 0.00 0.00 0.00 45 1012.0
20260831212034 75 320 1.0 0.0 0.00 0.00 0.00 43 1012.0
20260831211845 75 228 0.0 0.0 0.00 0.00 0.00 44 1012.0
20260831210518 75 250 0.0 0.0 0.00 0.00 0.00 45 1012.2
20260831210344 75 26 0.0 0.0 0.00 0.00 0.00 45 1012.2
20260831205037 74 27 1.0 0.0 0.00 0.00 0.00 45 1012.4
20260831204902 74 28 1.0 0.0 0.00 0.00 0.00 46 1012.4
20260831203535 74 306 0.0 0.0 0.00 0.00 0.00 44 1012.5
20260831203325 74 306 0.0 0.0 0.00 0.00 0.00 44 1012.5
20260831202021 73 300 1.0 0.0 0.00 0.00 0.00 48 1012.5
20260831201847 72 290 1.0 0.0 0.00 0.00 0.00 51 1012.5
20260831200520 73 240 1.0 0.0 0.00 0.00 0.00 47 1012.5
20260831200325 73 21 0.0 0.0 0.00 0.00 0.00 49 1012.5
20260831195022 72 21 0.0 0.0 0.00 0.00 0.00 48 1012.8
20260831194829 72 21 0.0 0.0 0.00 0.00 0.00 49 1012.8
20260831193523 70 21 0.0 0.0 0.00 0.00 0.00 52 1013.1
20260831193330 70 21 0.0 0.0 0.00 0.00 0.00 52 1013.1
20260831192044 70 26 0.0 0.0 0.00 0.00 0.00 53 1013.1
20260831191847 70 77 0.0 0.0 0.00 0.00 0.00 53 1013.1
20260831190601 68 44 0.0 0.0 0.00 0.00 0.00 56 1013.1
20260831190322 68 44 0.0 0.0 0.00 0.00 0.00 56 1013.1
20260831185019 67 14 1.0 0.0 0.00 0.00 0.00 58 1013.5
20260831184828 67 14 1.0 0.0 0.00 0.00 0.00 59 1013.5
20260831183524 66 115 1.0 0.0 0.00 0.00 0.00 60 1013.5
20260831183328 66 30 1.0 0.0 0.00 0.00 0.00 62 1013.5
20260831182020 66 126 1.0 0.0 0.00 0.00 0.00 61 1013.5
20260831181829 65 103 1.0 0.0 0.00 0.00 0.00 62 1013.5
20260831180523 65 21 1.0 0.0 0.00 0.00 0.00 63 1013.5
20260831180330 65 10 1.0 0.0 0.00 0.00 0.00 64 1013.5
20260831175046 64 26 1.0 0.0 0.00 0.00 0.00 64 1013.3
20260831174830 64 26 2.0 0.0 0.00 0.00 0.00 64 1013.3
20260831173523 64 36 1.0 0.0 0.00 0.00 0.00 65 1013.3
20260831173335 64 35 1.0 0.0 0.00 0.00 0.00 67 1013.3
20260831172030 62 24 1.0 0.0 0.00 0.00 0.00 69 1013.4
20260831171834 61 24 1.0 0.0 0.00 0.00 0.00 70 1013.3
20260831170554 59 37 0.0 0.0 0.00 0.00 0.00 77 1013.1
20260831170339 59 37 0.0 0.0 0.00 0.00 0.00 77 1013.1
20260831165032 59 36 0.0 0.0 0.00 0.00 0.00 79 1013.1
20260831164820 59 36 0.0 0.0 0.00 0.00 0.00 79 1013.1
20260831163515 58 36 0.0 0.0 0.00 0.00 0.00 80 1013.0
20260831163323 58 36 0.0 0.0 0.00 0.00 0.00 80 1013.0
20260831162024 58 36 0.0 0.0 0.00 0.00 0.00 81 1013.0
20260831161849 58 36 0.0 0.0 0.00 0.00 0.00 81 1013.0
20260831160522 58 36 0.0 0.0 0.00 0.00 0.00 81 1012.9
20260831160333 58 36 0.0 0.0 0.00 0.00 0.00 82 1012.9
20260831155027 58 36 0.0 0.0 0.00 0.00 0.00 82 1012.9
20260831154832 58 36 0.0 0.0 0.00 0.00 0.00 82 1012.9
20260831153526 58 36 0.0 0.0 0.00 0.00 0.00 82 1012.9
20260831153332 58 36 0.0 0.0 0.00 0.00 0.00 82 1012.9
20260831152045 58 36 0.0 0.0 0.00 0.00 0.00 82 1012.7
20260831151833 58 36 0.0 0.0 0.00 0.00 0.00 82 1012.7
20260831150527 58 36 0.0 0.0 0.00 0.00 0.00 81 1012.6
20260831150334 58 36 0.0 0.0 0.00 0.00 0.00 81 1012.6
20260831145034 58 28 0.0 0.0 0.00 0.00 0.00 81 1012.4
20260831144858 58 28 0.0 0.0 0.00 0.00 0.00 82 1012.4
20260831143535 58 82 0.0 0.0 0.00 0.00 0.00 82 1012.2
20260831143324 58 82 0.0 0.0 0.00 0.00 0.00 81 1012.2
20260831142038 57 82 0.0 0.0 0.00 0.00 0.00 81 1012.0
20260831141824 57 82 0.0 0.0 0.00 0.00 0.00 81 1012.0
20260831140601 57 82 0.0 0.0 0.00 0.00 0.00 81 1012.0
20260831140322 57 82 0.0 0.0 0.00 0.00 0.00 81 1012.0
20260831135016 57 82 0.0 0.0 0.00 0.00 0.00 82 1011.7
20260831134828 57 82 0.0 0.0 0.00 0.00 0.00 82 1011.7
20260831133522 57 82 0.0 0.0 0.00 0.00 0.00 83 1011.5
20260831133327 57 82 0.0 0.0 0.00 0.00 0.00 83 1011.5
20260831132024 57 82 0.0 0.0 0.00 0.00 0.00 83 1011.5
20260831131851 57 82 0.0 0.0 0.00 0.00 0.00 84 1011.5
20260831130527 57 82 0.0 0.0 0.00 0.00 0.00 84 1011.5
20260831130337 57 82 0.0 0.0 0.00 0.00 0.00 84 1011.5
20260831125032 57 82 0.0 0.0 0.00 0.00 0.00 84 1011.5
20260831124839 56 82 0.0 0.0 0.00 0.00 0.00 84 1011.5
20260831123533 56 82 0.0 0.0 0.00 0.00 0.00 84 1011.5
20260831123323 56 82 0.0 0.0 0.00 0.00 0.00 84 1011.5
20260831122018 56 82 0.0 0.0 0.00 0.00 0.00 85 1011.3
20260831121825 56 82 0.0 0.0 0.00 0.00 0.00 85 1011.3
20260831120521 56 82 0.0 0.0 0.00 0.00 0.00 85 1011.1
20260831120326 55 82 0.0 0.0 0.00 0.00 0.00 85 1011.1
20260831115043 55 82 0.0 0.0 0.00 0.00 0.00 86 1011.0
20260831114831 55 82 0.0 0.0 0.00 0.00 0.00 85 1011.0
20260831113531 55 82 0.0 0.0 0.00 0.00 0.00 85 1011.0
20260831113338 55 82 0.0 0.0 0.00 0.00 0.00 85 1011.0
20260831112032 55 82 0.0 0.0 0.00 0.00 0.00 85 1011.0
20260831111822 55 82 0.0 0.0 0.00 0.00 0.00 85 1011.0
20260831110522 55 82 0.0 0.0 0.00 0.00 0.00 85 1011.0
20260831110329 55 82 0.0 0.0 0.00 0.00 0.00 85 1011.0
20260831105043 56 82 0.0 0.0 0.00 0.00 0.00 84 1011.0
20260831104828 56 82 0.0 0.0 0.00 0.00 0.00 84 1011.0
20260831103524 56 82 0.0 0.0 0.00 0.00 0.00 84 1011.0
20260831103352 56 82 0.0 0.0 0.00 0.00 0.00 84 1011.0